{"data":{"norad_id":61887,"intl_designator":"2024-204P","name":"STARLINK-32410","alt_names":[],"object_type":"PAYLOAD","status":"ACTIVE","operator":null,"country":"US","launch_date":"2024-11-09","launch_site_code":"AFWTR","launch_vehicle":null,"mission":null,"orbit_class":"UNKNOWN","rcs_meters":null,"size_class":null,"mass_kg":null,"dimensions":null,"purposes":["comms"],"wikipedia_slug":null,"has_3d_model":false,"image_url":null,"decayed_at":null,"tle_current":{"epoch":"2026-09-20T09:55:03.445248Z","epoch_age_seconds":196063,"freshness":"STALE","line1":"1 61887U 24204P   26263.41323432 -.00000053  00000+0  95819-5 0  9998","line2":"2 61887  53.1604 298.1412 0001360  91.6662 268.4496 15.34388583104976","mean_motion":15.34388583,"eccentricity":0.000136,"inclination_deg":53.1604,"raan_deg":298.1412,"arg_perigee_deg":91.6662,"mean_anomaly_deg":268.4496,"bstar":9.5819e-6,"rev_number":10497,"period_min":93.848456378928,"perigee_km":461.80681525985,"apogee_km":463.66753303522,"semimajor_km":6840.8741741475,"source":"CELESTRAK","updated_at":"2026-09-22T09:00:49.447058Z"}}}